{"data":{"norad_id":60408,"intl_designator":"2024-141L","name":"STARLINK-11196 [DTC]","alt_names":[],"object_type":"PAYLOAD","status":"ACTIVE","operator":null,"country":"US","launch_date":"2024-08-10","launch_site_code":"AFETR","launch_vehicle":null,"mission":null,"orbit_class":"UNKNOWN","rcs_meters":null,"size_class":null,"mass_kg":null,"dimensions":null,"purposes":["comms"],"wikipedia_slug":null,"has_3d_model":false,"image_url":null,"decayed_at":null,"tle_current":{"epoch":"2026-05-25T04:01:13.960416Z","epoch_age_seconds":67548,"freshness":"FRESH","line1":"1 60408U 24141L   26145.16752269  .00000216  00000+0  66427-5 0  9994","line2":"2 60408  53.1593  69.3221 0001279  88.2521 271.8644 15.69717371103759","mean_motion":15.69717371,"eccentricity":0.0001279,"inclination_deg":53.1593,"raan_deg":69.3221,"arg_perigee_deg":88.2521,"mean_anomaly_deg":271.8644,"bstar":6.6427e-6,"rev_number":10375,"period_min":91.736259444121,"perigee_km":358.84388744589,"apogee_km":360.56742759769,"semimajor_km":6737.8426575218,"source":"CELESTRAK","updated_at":"2026-05-25T13:38:19.269319Z"}}}